Hourly Data Report for October 07, 2017

All times are specified in Local Standard Time (LST). Add 1 hour to adjust for Daylight Saving Time where and when it is observed.

OTTAWA INTL A
ONTARIO

45°19'00.000" N
75°40'00.000" W
114.90 m
6106001
71628
YOW

Download Data

Hourly Data (October 2017)
Hourly Data Report for October 7, 2017
Temp Definition
°C
Dew Point Temp Definition
°C
Rel Hum Definition
%
Wind Dir Definition
10's deg

Wind Spd Definition
km/h
Visibility Definition
km
Stn Press Definition
kPa
Hmdx Definition


Wind Chill Definition


Weather Definition


TIME
00:00 Legend Double Dagger 10.6 10.3 98 20 5 16.1 100.41     LegendNANA
01:00 Legend Double Dagger 10.4 10.2 98 12 3 1.0 100.40     Fog
02:00 Legend Double Dagger 7.8 7.4 98 7 6 0.8 100.35     Fog
03:00 Legend Double Dagger 8.8 8.5 98 6 8 3.2 100.32     Fog
04:00 Legend Double Dagger 9.7 9.4 98 7 11 4.8 100.34     Fog
05:00 Legend Double Dagger 10.0 9.7 98 7 10 4.8 100.30     Fog
06:00 Legend Double Dagger 10.7 10.4 98 7 13 4.8 100.25     Fog
07:00 Legend Double Dagger 11.5 11.2 98 8 10 3.2 100.24     Fog
08:00 Legend Double Dagger 12.3 11.7 96 8 13 8.1 100.19     Fog
09:00 Legend Double Dagger 12.8 12.1 96 10 12 8.1 100.16     Rain Showers,Fog
10:00 Legend Double Dagger 13.8 13.3 97 13 11 3.2 100.11     Rain Showers,Fog
11:00 Legend Double Dagger 15.2 14.8 97 16 17 6.4 100.02     Rain Showers,Fog
12:00 Legend Double Dagger 16.9 16.3 96 23 8 8.1 100.00     Rain Showers,Fog
13:00 Legend Double Dagger 19.5 18.0 91 19 19 16.1 99.86     Mostly Cloudy
14:00 Legend Double Dagger 21.1 17.1 78 17 17 16.1 99.72 26   LegendNANA
15:00 Legend Double Dagger 19.8 17.3 85 17 11 24.1 99.66     LegendNANA
16:00 Legend Double Dagger 19.7 17.5 87 14 10 24.1 99.60     Cloudy
17:00 Legend Double Dagger 19.4 17.4 89 14 10 24.1 99.58     LegendNANA
18:00 Legend Double Dagger 19.1 17.2 88 15 13 24.1 99.55     LegendNANA
19:00 Legend Double Dagger 18.9 17.0 89 14 14 24.1 99.51     Mostly Cloudy
20:00 Legend Double Dagger 18.7 17.0 90 15 11 24.1 99.47     LegendNANA
21:00 Legend Double Dagger 18.7 16.8 88 17 10 24.1 99.45     LegendNANA
22:00 Legend Double Dagger 18.4 16.1 87 18 11 24.1 99.41     Mostly Cloudy
23:00 Legend Double Dagger 18.4 15.4 83 16 9 24.1 99.38     LegendNANA

Notes on Data Quality.

Legend

  • E = Estimated
  • M = Missing
  • NA = Not Available
  • ‡ = Partner data that is not subject to review by the National Climate Archives
Date modified: